Date String (YYYY-MM-DD hh:mm:ss) UTC,Instrument flags,Ambient pressure (hPa),Sample flow (lpm),Bypass flow (lpm),Sample temperature (°C),Ambient temperature (°C),ASC tube jacket temperature (°C),LED temperature (°C),Box temperature (°C),Sample RH (%),Span deviation,Mass concentration (μg/m³),Mass concentration (μg/m³),Mass concentration (μg/m³)
DateTimeUTC,F1_M11,P_M11,Q1_M11,Q2_M11,T1_M11,T2_M11,T3_M11,T4_M11,T5_M11,U1_M11,ZSPAN_M11,X2_M11,X0_M11,X1_M11
2022-06-05 07:00:00,,0820.2,5.01,0.00,30.0,28.9,00.0,38.9,31.9,17.9,0000.0,0003.97,0009.50,0003.15
2022-06-05 07:01:00,,0820.2,5.00,0.00,30.0,28.8,00.0,38.9,31.9,18.0,0000.0,0003.96,0009.22,0003.15
2022-06-05 07:02:00,,0820.2,4.99,0.00,30.0,28.8,00.0,38.9,31.9,18.5,0000.0,0003.94,0008.91,0003.16
2022-06-05 07:03:00,,0820.2,4.98,0.00,30.0,28.8,00.0,38.9,31.9,18.7,0000.0,0003.94,0008.95,0003.17
2022-06-05 07:04:00,,0820.2,4.99,0.00,30.0,28.8,00.0,38.9,31.9,18.6,0000.0,0003.97,0009.06,0003.17
2022-06-05 07:05:00,,0820.2,5.00,0.00,30.0,28.9,00.0,38.9,31.9,18.4,0000.0,0003.97,0009.32,0003.18
2022-06-05 07:06:00,,0820.2,5.00,0.00,30.0,28.9,00.0,38.9,31.9,18.2,0000.0,0004.01,0010.12,0003.19
2022-06-05 07:07:00,,0820.1,5.00,0.00,30.0,28.9,00.0,38.9,31.9,18.1,0000.0,0004.03,0010.28,0003.19
2022-06-05 07:08:00,,0820.1,5.00,0.00,30.0,28.9,00.0,38.9,31.9,18.2,0000.0,0004.06,0010.47,0003.19
2022-06-05 07:09:00,,0820.1,5.00,0.00,30.0,28.9,00.0,38.9,31.9,18.3,0000.0,0004.10,0010.66,0003.21
2022-06-05 07:10:00,,0820.1,4.99,0.00,30.0,28.9,00.0,38.9,31.9,18.2,0000.0,0004.13,0010.69,0003.22
2022-06-05 07:11:00,,0820.1,5.00,0.00,30.0,28.9,00.0,38.9,31.9,18.2,0000.0,0004.08,0010.29,0003.21
2022-06-05 07:12:00,,0820.1,4.99,0.00,30.0,28.9,00.0,38.9,31.9,18.3,0000.0,0004.07,0010.50,0003.21
2022-06-05 07:13:00,,0820.2,5.00,0.00,30.0,28.9,00.0,38.9,31.9,18.3,0000.0,0004.09,0010.83,0003.20
2022-06-05 07:14:00,,0820.2,5.01,0.00,30.0,28.9,00.0,38.9,31.9,18.1,0000.0,0004.11,0011.44,0003.20
2022-06-05 07:15:00,,0820.2,5.00,0.00,30.0,28.9,00.0,38.9,31.9,18.1,0000.0,0004.06,0011.27,0003.20
2022-06-05 07:16:00,,0820.2,5.00,0.00,30.0,28.9,00.0,38.9,31.9,18.3,0000.0,0004.09,0011.03,0003.20
2022-06-05 07:17:00,,0820.2,5.00,0.00,30.0,28.9,00.0,38.9,31.9,18.6,0000.0,0004.08,0010.38,0003.20
2022-06-05 07:18:00,,0820.2,5.01,0.00,30.0,28.9,00.0,38.9,31.9,18.5,0000.0,0004.09,0010.06,0003.20
2022-06-05 07:19:00,,0820.2,4.99,0.00,30.0,28.9,00.0,39.0,31.9,18.3,0000.0,0004.10,0010.11,0003.21
2022-06-05 07:20:00,,0820.3,5.01,0.00,30.0,28.9,00.0,39.0,31.9,17.8,0000.0,0004.11,0010.47,0003.20
2022-06-05 07:21:00,,0820.2,5.00,0.00,30.1,28.9,00.0,39.0,31.9,17.8,0000.0,0004.17,0010.49,0003.19
2022-06-05 07:22:00,,0820.2,4.99,0.00,30.1,28.9,00.0,39.0,31.9,17.8,0000.0,0004.22,0010.63,0003.19
2022-06-05 07:23:00,,0820.2,5.01,0.00,30.1,28.9,00.0,39.0,31.9,17.8,0000.0,0004.25,0010.23,0003.18
2022-06-05 07:24:00,,0820.2,4.99,0.00,30.1,28.9,00.0,39.0,31.9,18.0,0000.0,0004.26,0009.96,0003.19
2022-06-05 07:25:00,,0820.2,5.00,0.00,30.1,28.9,00.0,39.0,31.9,18.3,0000.0,0004.27,0009.57,0003.19
2022-06-05 07:26:00,,0820.2,5.01,0.00,30.1,28.9,00.0,39.0,31.9,18.1,0000.0,0004.29,0010.02,0003.19
2022-06-05 07:27:00,,0820.2,5.00,0.00,30.1,28.9,00.0,39.0,31.9,17.8,0000.0,0004.29,0010.34,0003.17
2022-06-05 07:28:00,,0820.2,4.99,0.00,30.1,28.9,00.0,39.0,31.9,17.9,0000.0,0004.31,0010.63,0003.17
2022-06-05 07:29:00,,0820.2,5.01,0.00,30.1,28.9,00.0,39.0,31.9,18.2,0000.0,0004.30,0011.02,0003.18
2022-06-05 07:30:00,,0820.2,5.01,0.00,30.1,28.9,00.0,39.0,31.9,18.5,0000.0,0004.30,0010.95,0003.18
2022-06-05 07:31:00,,0820.2,4.99,0.00,30.0,28.9,00.0,39.0,31.9,18.4,0000.0,0004.24,0010.32,0003.19
2022-06-05 07:32:00,,0820.1,5.01,0.00,30.1,28.8,00.0,39.0,31.9,18.1,0000.0,0004.19,0010.12,0003.19
2022-06-05 07:33:00,,0820.0,4.99,0.00,30.1,28.8,00.0,39.0,31.9,18.5,0000.0,0004.15,0010.12,0003.19
2022-06-05 07:34:00,,0820.0,5.00,0.00,30.0,28.8,00.0,39.0,31.9,18.5,0000.0,0004.16,0011.41,0003.20
2022-06-05 07:35:00,,0819.9,4.98,0.00,30.1,28.8,00.0,39.0,31.9,18.5,0000.0,0004.18,0011.99,0003.21
2022-06-05 07:36:00,,0819.9,5.00,0.00,30.0,28.8,00.0,39.0,31.9,18.3,0000.0,0004.15,0012.01,0003.21
2022-06-05 07:37:00,,0820.0,4.99,0.00,30.1,28.8,00.0,39.0,31.9,18.3,0000.0,0004.14,0011.63,0003.22
2022-06-05 07:38:00,,0820.0,5.01,0.00,30.0,28.8,00.0,39.0,31.9,18.1,0000.0,0004.11,0011.18,0003.24
2022-06-05 07:39:00,,0820.0,5.00,0.00,30.0,28.8,00.0,39.0,31.9,18.2,0000.0,0004.07,0010.80,0003.24
2022-06-05 07:40:00,,0820.0,4.99,0.00,30.0,28.8,00.0,39.0,31.9,18.4,0000.0,0004.08,0010.54,0003.25
2022-06-05 07:41:00,,0820.0,5.00,0.00,30.0,28.8,00.0,39.0,31.9,18.3,0000.0,0004.11,0010.69,0003.26
2022-06-05 07:42:00,,0820.0,5.01,0.00,30.0,28.8,00.0,38.9,31.9,18.4,0000.0,0004.13,0010.77,0003.26
2022-06-05 07:43:00,,0819.9,5.00,0.00,30.0,28.8,00.0,38.9,31.9,18.8,0000.0,0004.11,0010.90,0003.26
2022-06-05 07:44:00,,0819.9,5.00,0.00,30.0,28.8,00.0,38.9,31.9,18.4,0000.0,0004.12,0011.24,0003.26
2022-06-05 07:45:00,,0819.9,5.01,0.00,30.0,28.8,00.0,38.9,31.9,18.1,0000.0,0004.12,0010.01,0003.25
2022-06-05 07:46:00,,0819.9,5.00,0.00,30.0,28.8,00.0,38.9,31.9,17.9,0000.0,0004.08,0009.91,0003.24
2022-06-05 07:47:00,,0819.9,5.00,0.00,30.0,28.8,00.0,38.9,31.9,18.0,0000.0,0004.08,0009.65,0003.24
2022-06-05 07:48:00,,0819.8,4.99,0.00,30.0,28.8,00.0,38.9,31.9,18.0,0000.0,0004.05,0009.54,0003.23
2022-06-05 07:49:00,,0819.9,5.00,0.00,30.0,28.8,00.0,38.9,31.9,17.9,0000.0,0004.10,0009.71,0003.23
2022-06-05 07:50:00,,0819.9,4.99,0.00,30.0,28.8,00.0,39.0,31.9,17.8,0000.0,0004.12,0010.11,0003.23
2022-06-05 07:51:00,,0819.9,5.01,0.00,30.0,28.8,00.0,39.0,31.9,17.6,0000.0,0004.09,0010.74,0003.23
2022-06-05 07:52:00,,0819.9,5.01,0.00,30.0,28.8,00.0,38.9,31.9,17.6,0000.0,0004.04,0011.13,0003.23
2022-06-05 07:53:00,,0819.9,5.01,0.00,30.0,28.8,00.0,38.9,31.9,17.3,0000.0,0004.03,0011.72,0003.21
2022-06-05 07:54:00,,0819.9,4.99,0.00,30.0,28.8,00.0,38.9,31.9,17.3,0000.0,0003.99,0011.45,0003.20
2022-06-05 07:55:00,,0819.9,5.01,0.00,30.0,28.8,00.0,38.9,31.9,17.4,0000.0,0004.01,0011.57,0003.19
2022-06-05 07:56:00,,0819.9,4.99,0.00,30.0,28.8,00.0,38.9,31.9,17.6,0000.0,0003.98,0011.62,0003.19
2022-06-05 07:57:00,,0819.9,5.00,0.00,30.0,28.8,00.0,38.9,31.9,17.7,0000.0,0003.91,0010.94,0003.18
2022-06-05 07:58:00,,0819.9,4.99,0.00,30.0,28.8,00.0,38.9,31.9,17.4,0000.0,0003.91,0011.57,0003.17
2022-06-05 07:59:00,,0819.9,5.00,0.00,30.0,28.8,00.0,38.9,31.9,17.4,0000.0,0003.95,0012.24,0003.17
